Augusta Bush, GA

9:08 AM EST on December 13, 2017 (GMT -0500)
Augusta Regional At Bush

Weather History for KAGS - January, 2012

Change the Weather History Date:

Tuesday, January 3, 2012

  Actual Average Record
Temperature  
Mean Temperature 32 °F 45 °F  
Max Temperature 40 °F 57 °F 80 °F (1952)
Min Temperature 24 °F 33 °F 12 °F (2001)
Degree Days  
Heating Degree Days 33 20  
Month to date heating degree days 66 60  
Since 1 July heating degree days 942 1035  
Cooling Degree Days 0 0  
Month to date cooling degree days 0 0  
Year to date cooling degree days 0 0  
Moisture  
Dew Point 9 °F    
Average Humidity 38    
Maximum Humidity 50    
Minimum Humidity 25    
Precipitation  
Precipitation 0.00 in 0.12 in 1.84 in (1947)
Month to date precipitation T 0.35  
Year to date precipitation T 0.35  
Sea Level Pressure  
Sea Level Pressure 30.32 in    
Wind  
Wind Speed 11 mph (NW)    
Max Wind Speed 26 mph    
Max Gust Speed 36 mph    
Visibility 10 miles    
Events      
T = Trace of Precipitation, MM = Missing Value Source: NWS Daily Summary

Daily Weather History Graph

Daily Weather History Graph

Search for Another Location

Airport or City:

Trip Planner

Search our weather history database for the weather conditions in past years. The results will help you decide how hot, cold, wet, or windy it might be!

Date:

Astronomy

Jan. 03, 2012 Rise Set
Actual Time 7:32 AM EST 5:32 PM EST
Civil Twilight 7:04 AM EST 5:59 PM EST
Nautical Twilight 6:33 AM EST 6:30 PM EST
Astronomical Twilight 6:03 AM EST 7:00 PM EST
Moon 1:15 PM EST (1/3) 2:26 AM EST (1/3)
Length of Visible Light 10h 55m
Length of Day
10h 00m
Waxing Gibbous, 72% of the Moon is Illuminated
Jan 3
Waxing Gibbous
Jan 9
Full
Jan 16
Last Quarter
Jan 23
New
Jan 30
First Quarter

Hourly Weather History & Observations

Time (EST) Temp. Windchill Dew Point Humidity Pressure Visibility Wind Dir Wind Speed Gust Speed Precip Events Conditions
12:53 AM 33.1 °F 20.9 °F 8.1 °F 35% 30.20 in 10.0 mi NW 21.9 mph 35.7 mph N/A   Clear
1:53 AM 30.9 °F 20.7 °F 10.0 °F 42% 30.21 in 10.0 mi NW 13.8 mph - N/A   Clear
2:53 AM 30.0 °F 18.7 °F 9.0 °F 41% 30.22 in 10.0 mi NW 16.1 mph 23.0 mph N/A   Clear
3:53 AM 30.0 °F 20.0 °F 9.0 °F 41% 30.24 in 10.0 mi NW 12.7 mph - N/A   Clear
4:53 AM 28.9 °F 17.7 °F 9.0 °F 43% 30.26 in 10.0 mi NW 15.0 mph - N/A   Clear
5:53 AM 28.0 °F 18.6 °F 10.0 °F 47% 30.28 in 10.0 mi NW 10.4 mph - N/A   Clear
6:53 AM 26.6 °F 18.2 °F 10.4 °F 51% 30.32 in 10.0 mi NW 8.1 mph - N/A   Clear
7:53 AM 27.0 °F 19.5 °F 9.0 °F 47% 30.35 in 10.0 mi WNW 6.9 mph - N/A   Clear
8:53 AM 28.9 °F 20.4 °F 10.0 °F 45% 30.38 in 10.0 mi WNW 9.2 mph - N/A   Clear
9:53 AM 30.9 °F 20.7 °F 9.0 °F 40% 30.40 in 10.0 mi WNW 13.8 mph - N/A   Clear
10:53 AM 35.1 °F 25.9 °F 8.1 °F 33% 30.40 in 10.0 mi NW 13.8 mph 20.7 mph N/A   Clear
11:53 AM 35.1 °F 26.4 °F 7.0 °F 31% 30.37 in 10.0 mi WNW 12.7 mph 19.6 mph N/A   Clear
12:53 PM 37.0 °F 28.5 °F 7.0 °F 29% 30.34 in 10.0 mi West 13.8 mph 20.7 mph N/A   Clear
1:53 PM 37.9 °F 30.0 °F 8.1 °F 29% 30.31 in 10.0 mi NW 12.7 mph 21.9 mph N/A   Clear
2:53 PM 39.0 °F 29.9 °F 7.0 °F 27% 30.30 in 10.0 mi NW 17.3 mph - N/A   Clear
3:53 PM 39.0 °F 31.0 °F 6.1 °F 26% 30.31 in 10.0 mi WNW 13.8 mph - N/A   Clear
4:53 PM 37.9 °F 30.5 °F 7.0 °F 28% 30.32 in 10.0 mi NW 11.5 mph - N/A   Clear
5:53 PM 35.1 °F 29.3 °F 8.1 °F 33% 30.33 in 10.0 mi WNW 6.9 mph - N/A   Clear
6:53 PM 35.1 °F 26.4 °F 7.0 °F 31% 30.35 in 10.0 mi NW 12.7 mph - N/A   Clear
7:53 PM 33.1 °F 26.9 °F 9.0 °F 37% 30.36 in 10.0 mi WNW 6.9 mph - N/A   Clear
8:53 PM 32.0 °F 27.5 °F 9.0 °F 38% 30.38 in 10.0 mi WNW 4.6 mph - N/A   Clear
9:53 PM 30.0 °F - 10.0 °F 43% 30.38 in 10.0 mi Calm Calm - N/A   Clear
10:53 PM 28.0 °F 20.8 °F 10.9 °F 49% 30.39 in 10.0 mi WNW 6.9 mph - N/A   Clear
11:53 PM 25.0 °F - 14.0 °F 63% 30.39 in 10.0 mi Calm Calm - N/A   Clear